Regional Weather Roundup
Issued by NWS

Home | Current Version | Previous Version | Text Only | Print | Product List | Glossary Off
Versions: 1 2 3 4 5 6 7 8 9 10 11 12 13 14 15 16 17 18 19 20 21 22 23 24 25 26 27 28 29 30 31 32 33 34 35 36 37 38 39 40 41 42 43 44 45 46 47 48 49 50

000
ASUS43 KOAX 282002
RWRNE

WEATHER ROUNDUP FOR NEBRASKA
NATIONAL WEATHER SERVICE OMAHA NE
300 PM CDT THU APR 28 2016

NOTES: SATELLITE DATA IS BEING USED TO AUGMENT CLOUD COVER ABOVE
       12000 FEET.
       "FAIR" INDICATES FEW OR NO CLOUDS BELOW 12,000 FEET WITH NO
       SIGNIFICANT WEATHER AND/OR OBSTRUCTIONS TO VISIBILITY.

  * THESE STATIONS DO NOT REPORT WEATHER SUCH AS RAIN...SNOW OR FOG.

NEZ001>004-019>022-054>056-282100-
NEBRASKA PANHANDLE

CITY           SKY/WX    TMP DP  RH WIND       PRES   REMARKS
SCOTTSBLUFF    CLOUDY    45  29  53 N5        30.00F
ALLIANCE       CLOUDY    42  30  62 N10       29.99F
CHADRON        CLOUDY    43  33  68 N8        30.03S
KIMBALL        LGT RAIN  39  30  69 E7        30.00R WCI  34
SIDNEY         CLOUDY    38  30  73 E6        30.01S WCI  33
$$

NEZ057>060-069>072-079>082-282100-
SOUTHWEST NEBRASKA

CITY           SKY/WX    TMP DP  RH WIND       PRES   REMARKS
NORTH PLATTE   CLOUDY    47  34  60 CALM      30.01R
IMPERIAL       LGT RAIN  44  34  67 E7        30.02S
LEXINGTON      CLOUDY    48  39  69 N7        30.02R
MCCOOK         LGT RAIN  51  36  56 VRB3      30.01S
$$

NEZ005>010-023>029-035>040-094-282100-
NORTH CENTRAL NEBRASKA

CITY           SKY/WX    TMP DP  RH WIND       PRES   REMARKS
VALENTINE      CLOUDY    43  35  73 N13       30.02S
BROKEN BOW     CLOUDY    46  38  73 N9        30.00S
ORD            CLOUDY    46  39  76 NW12      30.00R
$$

NEZ041-046>049-061>064-073>077-083>087-282100-
SOUTH CENTRAL NEBRASKA

CITY           SKY/WX    TMP DP  RH WIND       PRES   REMARKS
GRAND ISLAND   CLOUDY    50  40  68 N10       30.01R
AURORA         CLOUDY    49  43  78 NW12      30.01R
HASTINGS       CLOUDY    49  40  71 N12       30.01R
KEARNEY *      CLOUDY    48  39  71 N10       30.02S
YORK           CLOUDY    48  41  76 N5        30.01R
$$

NEZ011>018-030>034-042>045-282100-
NORTHEAST NEBRASKA

CITY           SKY/WX    TMP DP  RH WIND       PRES   REMARKS
NORFOLK        CLOUDY    46  38  73 NW13      29.99R
ALBION         CLOUDY    46  39  76 N8G16     30.00R
BLAIR          CLOUDY    49  42  79 NW10      29.97R
COLUMBUS *     CLOUDY    48  36  61 N13       30.00R
FREMONT        CLOUDY    49  41  76 NW12      29.99R
TEKAMAH        CLOUDY    48  43  82 NW17      29.98R
$$

NEZ050>053-065>068-078-088>093-282100-
SOUTHEAST NEBRASKA

CITY           SKY/WX    TMP DP  RH WIND       PRES   REMARKS
LINCOLN        CLOUDY    52  41  66 N10       30.00R
OMAHA EPPLEY   CLOUDY    51  43  74 NW12      29.97R
FALLS CITY     CLOUDY    54  46  74 NW10      29.98R
$$

NEZ044-045-051>053-067-282100-
OMAHA AREA

CITY           SKY/WX    TMP DP  RH WIND       PRES   REMARKS
OMAHA EPPLEY   CLOUDY    51  43  74 NW12      29.97R
BLAIR          CLOUDY    49  42  79 NW10      29.97R
FREMONT        CLOUDY    49  41  76 NW12      29.99R
OFFUTT AFB     CLOUDY    50  43  76 NW12      29.97R
$$



USA.gov is the U.S. government's official web portal to all federal, state and local government web resources and services.